Flag for Germany Weather past 2 weeks in Bad Oeynhausen, North Rhine-Westphalia, Germany

Now
37 °F

Chilly.


Feels Like: 29 °F
Forecast: 37 / 43 °F
Wind: 13 mph from Southwest

Location: Bueckeburg

Current Time: Apr 2, 2015 at 1:09:23 AM

Latest Report: Apr 2, 2015 at 12:20 AM


Visibility: 3 mi

Pressure: 29.86 "Hg

Humidity: 93%

Dew point: 36 °F

Location of Bad OeynhausenLocation

Historic Weather in Bad Oeynhausen — Graph

°F

Bad Oeynhausen temperature yesterday

Maximum temperature yesterday: 45 °F (at 2:20 PM)
Minimum temperature yesterday: 34 °F (at 4:20 PM)
Average temperature yesterday: 39 °F

Past Weeks' High & Low Weather Summary

 TemperatureHumidityPressure
High63 °F (Mar 25, 3:20 PM)100% (Mar 18, 3:20 AM)30.36 "Hg (Mar 18, 3:20 AM)
Low30 °F (Mar 20, 5:20 AM)39% (Mar 25, 3:20 PM)29.06 "Hg (Mar 31, 7:20 AM)
Average43 °F78%29.89 "Hg
* Reported Mar 17 10:20 PM — Apr 1 11:20 PM, Bad Oeynhausen, Weather by CustomWeather, © 2015

Note: Actual official high and low records may vary slightly from our data, if they occured in-between our weather recording intervals... More about our weather records

Advertising

Bad Oeynhausen weather history for previous 24 hours

 ConditionsComfort  
Time TempWeatherWind HumidityBarometerVisibility
11:20 PM
Wed, Apr 1
39 °FSprinkles. Mostly cloudy.15 mph81%29.89 "Hg4 mi
10:20 PM37 °FPassing clouds.12 mph81%29.92 "HgN/A
9:20 PM36 °FPassing clouds.8 mph93%29.95 "HgN/A
8:20 PM39 °FPartly sunny.17 mph81%29.95 "HgN/A
7:20 PM39 °FPartly sunny.18 mph81%29.95 "HgN/A
6:45 PM39 °FBroken clouds.20 mph81%29.92 "HgN/A
6:20 PM37 °FSprinkles. Broken clouds.24 mph87%29.92 "Hg5 mi
5:20 PM37 °FSprinkles. Partly sunny.16 mph93%29.92 "Hg5 mi
4:20 PM34 °FRain showers. Broken clouds.22 mph93%29.92 "Hg2 mi
3:20 PM43 °FThunderstorms. Partly sunny.14 mph66%29.92 "HgN/A
2:20 PM45 °FBroken clouds.22 mph66%29.89 "HgN/A
1:20 PM43 °FPartly sunny.22 mph76%29.89 "HgN/A
12:20 PM39 °FThunderstorms. Broken clouds.28 mph87%29.89 "HgN/A
11:20 AM43 °FPartly sunny.22 mph71%29.86 "HgN/A
10:20 AM41 °FPartly sunny.21 mph76%29.86 "HgN/A
9:20 AM39 °FPartly sunny.18 mph87%29.83 "HgN/A
8:20 AM37 °FBroken clouds.21 mph87%29.80 "HgN/A
7:20 AM36 °FSprinkles. Passing clouds.20 mph93%29.77 "Hg5 mi
6:20 AM37 °FPartly cloudy.20 mph81%29.74 "HgN/A
5:20 AM37 °FChilly.15 mph81%29.71 "Hg3 mi
4:20 AM37 °FChilly.20 mph81%29.68 "Hg3 mi
3:20 AM36 °FChilly.9 mph87%29.68 "Hg2 mi
2:20 AM39 °FChilly.23 mph75%29.68 "HgN/A
1:20 AM39 °FChilly.21 mph75%29.65 "Hg4 mi
Weather by CustomWeather, © 2015

See weather overviewHow to use our weather pages